Time,TemperatureF,DewpointF,PressureIn,WindDirection,WindDirectionDegrees,WindSpeedMPH,WindSpeedGustMPH,Humidity,HourlyPrecipIn,Conditions,Clouds,dailyrainin,SoftwareType,DateUTC
2013-10-03 00:00:00,65.5,54.7,29.87,East,90,9.0,10.0,68,0.00,,,0.00,meteohub,2013-10-03 05:00:00,
2013-10-03 00:05:00,65.3,54.5,29.87,SE,135,7.0,10.0,68,0.00,,,0.00,meteohub,2013-10-03 05:05:00,
2013-10-03 00:10:00,65.1,54.7,29.86,East,90,6.0,10.0,69,0.00,,,0.00,meteohub,2013-10-03 05:10:00,
2013-10-03 00:15:00,64.9,54.9,29.86,East,90,6.0,9.0,70,0.00,,,0.00,meteohub,2013-10-03 05:15:00,
2013-10-03 00:20:00,64.8,54.7,29.86,East,90,6.0,8.0,70,0.00,,,0.00,meteohub,2013-10-03 05:20:00,
2013-10-03 00:25:00,64.6,54.5,29.86,East,90,5.0,7.0,70,0.00,,,0.00,meteohub,2013-10-03 05:25:00,
2013-10-03 00:30:00,64.4,54.9,29.87,SE,135,7.0,7.0,71,0.00,,,0.00,meteohub,2013-10-03 05:30:00,
2013-10-03 00:35:00,64.2,55.4,29.87,SE,135,6.0,7.0,73,0.00,,,0.00,meteohub,2013-10-03 05:35:00,
2013-10-03 00:40:00,64.4,55.9,29.86,East,90,8.0,8.0,74,0.00,,,0.00,meteohub,2013-10-03 05:40:00,
2013-10-03 00:45:00,64.4,55.9,29.86,East,90,6.0,8.0,74,0.00,,,0.00,meteohub,2013-10-03 05:45:00,
2013-10-03 00:50:00,64.2,55.8,29.86,East,90,8.0,8.0,74,0.00,,,0.00,meteohub,2013-10-03 05:50:00,
2013-10-03 00:55:00,64.0,55.9,29.86,SE,135,8.0,8.0,75,0.00,,,0.00,meteohub,2013-10-03 05:55:00,
2013-10-03 01:00:00,64.0,56.3,29.86,SE,135,7.0,8.0,76,0.00,,,0.00,meteohub,2013-10-03 06:00:00,
2013-10-03 01:05:00,64.0,56.3,29.86,SE,135,7.0,8.0,76,0.00,,,0.00,meteohub,2013-10-03 06:05:00,
2013-10-03 01:10:00,63.7,57.0,29.86,SE,135,6.0,8.0,79,0.00,,,0.00,meteohub,2013-10-03 06:10:00,
2013-10-03 01:15:00,63.9,57.9,29.86,SE,135,8.0,8.0,81,0.00,,,0.00,meteohub,2013-10-03 06:15:00,
2013-10-03 01:21:00,64.0,58.8,29.86,SE,135,7.0,11.0,83,0.00,,,0.00,meteohub,2013-10-03 06:21:00,
2013-10-03 01:26:00,64.0,59.2,29.86,SE,135,8.0,11.0,84,0.00,,,0.00,meteohub,2013-10-03 06:26:00,
2013-10-03 01:31:00,64.2,59.4,29.86,SE,135,6.0,11.0,84,0.00,,,0.00,meteohub,2013-10-03 06:31:00,
2013-10-03 01:36:00,64.0,59.4,29.86,SE,135,10.0,11.0,85,0.00,,,0.00,meteohub,2013-10-03 06:36:00,
2013-10-03 01:41:00,64.2,59.9,29.86,SE,135,7.0,11.0,86,0.00,,,0.00,meteohub,2013-10-03 06:41:00,
2013-10-03 01:46:00,64.2,60.3,29.86,East,90,8.0,10.0,87,0.00,,,0.00,meteohub,2013-10-03 06:46:00,
2013-10-03 01:51:00,64.4,61.2,29.85,SE,135,8.0,11.0,89,0.00,,,0.00,meteohub,2013-10-03 06:51:00,
2013-10-03 01:56:00,64.4,61.3,29.86,SE,135,8.0,11.0,90,0.00,,,0.00,meteohub,2013-10-03 06:56:00,
2013-10-03 02:01:00,64.2,61.2,29.86,SE,135,9.0,9.0,90,0.00,,,0.00,meteohub,2013-10-03 07:01:00,
2013-10-03 02:06:00,64.2,61.5,29.86,East,90,8.0,9.0,91,0.00,,,0.00,meteohub,2013-10-03 07:06:00,
2013-10-03 02:11:00,64.0,61.3,29.85,SE,135,6.0,9.0,91,0.00,,,0.00,meteohub,2013-10-03 07:11:00,
2013-10-03 02:16:00,64.0,61.7,29.85,East,90,8.0,9.0,92,0.00,,,0.00,meteohub,2013-10-03 07:16:00,
2013-10-03 02:21:00,64.2,62.2,29.85,SE,135,7.0,9.0,93,0.00,,,0.00,meteohub,2013-10-03 07:21:00,
2013-10-03 02:26:00,64.2,62.2,29.85,South,180,8.0,9.0,93,0.00,,,0.00,meteohub,2013-10-03 07:26:00,
2013-10-03 02:31:00,64.2,62.4,29.84,SE,135,6.0,9.0,94,0.00,,,0.00,meteohub,2013-10-03 07:31:00,
2013-10-03 02:36:00,64.2,62.8,29.84,SE,135,8.0,11.0,95,0.00,,,0.00,meteohub,2013-10-03 07:36:00,
2013-10-03 02:41:00,64.2,62.8,29.84,SE,135,8.0,11.0,95,0.00,,,0.00,meteohub,2013-10-03 07:41:00,
2013-10-03 02:46:00,64.2,62.8,29.84,SE,135,6.0,10.0,95,0.00,,,0.00,meteohub,2013-10-03 07:46:00,
2013-10-03 02:51:00,64.2,63.1,29.84,SE,135,6.0,10.0,96,0.00,,,0.00,meteohub,2013-10-03 07:51:00,
2013-10-03 02:56:00,64.2,63.1,29.84,South,180,5.0,10.0,96,0.00,,,0.00,meteohub,2013-10-03 07:56:00,
2013-10-03 03:01:00,64.2,63.1,29.84,SE,135,6.0,10.0,96,0.00,,,0.00,meteohub,2013-10-03 08:01:00,
2013-10-03 03:07:00,64.2,63.1,29.83,SE,135,6.0,9.0,96,0.00,,,0.00,meteohub,2013-10-03 08:07:00,
2013-10-03 03:12:00,64.2,63.3,29.83,East,90,6.0,7.0,97,0.00,,,0.00,meteohub,2013-10-03 08:12:00,
2013-10-03 03:17:00,64.0,63.1,29.83,SE,135,5.0,6.0,97,0.00,,,0.00,meteohub,2013-10-03 08:17:00,
2013-10-03 03:22:00,64.0,63.1,29.83,SE,135,5.0,7.0,97,0.00,,,0.00,meteohub,2013-10-03 08:22:00,
2013-10-03 03:27:00,63.9,63.0,29.83,SE,135,6.0,7.0,97,0.00,,,0.00,meteohub,2013-10-03 08:27:00,
2013-10-03 03:32:00,64.0,63.1,29.83,East,90,7.0,7.0,97,0.00,,,0.00,meteohub,2013-10-03 08:32:00,
2013-10-03 03:37:00,64.0,63.1,29.83,SE,135,5.0,7.0,97,0.00,,,0.00,meteohub,2013-10-03 08:37:00,
2013-10-03 03:42:00,64.0,63.1,29.83,SE,135,5.0,7.0,97,0.00,,,0.00,meteohub,2013-10-03 08:42:00,
2013-10-03 03:47:00,64.0,63.1,29.83,SE,135,4.0,7.0,97,0.00,,,0.00,meteohub,2013-10-03 08:47:00,
2013-10-03 03:52:00,63.7,62.8,29.83,SE,135,4.0,6.0,97,0.00,,,0.00,meteohub,2013-10-03 08:52:00,
2013-10-03 03:57:00,63.7,62.8,29.83,SE,135,5.0,6.0,97,0.00,,,0.00,meteohub,2013-10-03 08:57:00,
2013-10-03 04:02:00,63.5,62.6,29.83,South,180,5.0,5.0,97,0.00,,,0.00,meteohub,2013-10-03 09:02:00,
2013-10-03 04:07:00,63.3,62.4,29.84,SE,135,6.0,6.0,97,0.00,,,0.00,meteohub,2013-10-03 09:07:00,
2013-10-03 04:12:00,63.1,62.2,29.84,SE,135,4.0,7.0,97,0.00,,,0.00,meteohub,2013-10-03 09:12:00,
2013-10-03 04:17:00,63.0,62.1,29.84,SE,135,4.0,7.0,97,0.00,,,0.00,meteohub,2013-10-03 09:17:00,
2013-10-03 04:22:00,63.0,62.1,29.83,SE,135,6.0,6.0,97,0.00,,,0.00,meteohub,2013-10-03 09:22:00,
2013-10-03 04:27:00,62.8,61.9,29.83,SE,135,4.0,7.0,97,0.00,,,0.00,meteohub,2013-10-03 09:27:00,
2013-10-03 04:32:00,63.0,62.1,29.83,SE,135,4.0,7.0,97,0.00,,,0.00,meteohub,2013-10-03 09:32:00,
2013-10-03 04:37:00,63.0,62.1,29.83,SE,135,4.0,7.0,97,0.00,,,0.00,meteohub,2013-10-03 09:37:00,
2013-10-03 04:42:00,63.0,62.1,29.83,SE,135,6.0,6.0,97,0.00,,,0.00,meteohub,2013-10-03 09:42:00,
2013-10-03 04:47:00,63.0,62.1,29.83,South,180,6.0,7.0,97,0.00,,,0.00,meteohub,2013-10-03 09:47:00,
2013-10-03 04:52:00,63.0,62.1,29.83,East,90,8.0,8.0,97,0.00,,,0.00,meteohub,2013-10-03 09:52:00,
2013-10-03 04:57:00,63.0,62.1,29.83,SE,135,5.0,8.0,97,0.00,,,0.00,meteohub,2013-10-03 09:57:00,
2013-10-03 05:02:00,63.0,62.1,29.83,South,180,5.0,8.0,97,0.00,,,0.00,meteohub,2013-10-03 10:02:00,
2013-10-03 05:07:00,63.0,62.1,29.83,SE,135,5.0,8.0,97,0.00,,,0.00,meteohub,2013-10-03 10:07:00,
2013-10-03 05:12:00,63.0,62.1,29.83,East,90,6.0,7.0,97,0.00,,,0.00,meteohub,2013-10-03 10:12:00,
2013-10-03 05:17:00,63.0,62.1,29.82,SE,135,5.0,7.0,97,0.00,,,0.00,meteohub,2013-10-03 10:17:00,
2013-10-03 05:22:00,63.0,62.1,29.82,SE,135,7.0,7.0,97,0.00,,,0.00,meteohub,2013-10-03 10:22:00,
2013-10-03 05:27:00,63.0,62.1,29.83,SE,135,5.0,7.0,97,0.00,,,0.00,meteohub,2013-10-03 10:27:00,
2013-10-03 05:32:00,63.0,62.1,29.83,SE,135,7.0,7.0,97,0.00,,,0.00,meteohub,2013-10-03 10:32:00,
2013-10-03 05:37:00,62.8,61.9,29.83,SE,135,6.0,7.0,97,0.00,,,0.00,meteohub,2013-10-03 10:37:00,
2013-10-03 05:42:00,63.0,62.1,29.83,SE,135,4.0,7.0,97,0.00,,,0.00,meteohub,2013-10-03 10:42:00,
2013-10-03 05:47:00,62.8,61.9,29.83,SE,135,4.0,7.0,97,0.00,,,0.00,meteohub,2013-10-03 10:47:00,
2013-10-03 05:52:00,63.0,62.1,29.83,ENE,68,6.0,6.0,97,0.00,,,0.00,meteohub,2013-10-03 10:52:00,
2013-10-03 05:57:00,63.3,62.4,29.83,SE,135,4.0,6.0,97,0.00,,,0.00,meteohub,2013-10-03 10:57:00,
2013-10-03 06:02:00,63.5,62.6,29.83,SE,135,6.0,7.0,97,0.00,,,0.00,meteohub,2013-10-03 11:02:00,
2013-10-03 06:07:00,63.7,62.8,29.83,SE,135,4.0,7.0,97,0.00,,,0.00,meteohub,2013-10-03 11:07:00,
2013-10-03 06:12:00,63.9,63.0,29.83,East,90,4.0,8.0,97,0.00,,,0.00,meteohub,2013-10-03 11:12:00,
2013-10-03 06:17:00,64.0,63.1,29.83,East,90,4.0,8.0,97,0.00,,,0.00,meteohub,2013-10-03 11:17:00,
2013-10-03 06:22:00,63.9,63.0,29.84,South,180,5.0,8.0,97,0.00,,,0.00,meteohub,2013-10-03 11:22:00,
2013-10-03 06:27:00,64.0,63.1,29.83,SE,135,3.0,7.0,97,0.00,,,0.00,meteohub,2013-10-03 11:27:00,
2013-10-03 06:32:00,64.2,63.3,29.83,SE,135,2.0,5.0,97,0.00,,,0.00,meteohub,2013-10-03 11:32:00,
2013-10-03 06:37:00,64.2,63.3,29.83,South,180,2.0,5.0,97,0.00,,,0.00,meteohub,2013-10-03 11:37:00,
2013-10-03 06:42:00,64.2,63.3,29.83,East,90,2.0,5.0,97,0.00,,,0.00,meteohub,2013-10-03 11:42:00,
2013-10-03 06:47:00,64.0,63.1,29.83,NE,45,0.0,4.0,97,0.00,,,0.00,meteohub,2013-10-03 11:47:00,
2013-10-03 06:52:00,63.9,63.0,29.83,NE,45,0.0,2.0,97,0.00,,,0.00,meteohub,2013-10-03 11:52:00,
2013-10-03 06:57:00,63.9,63.0,29.83,NW,315,4.0,4.0,97,0.00,,,0.00,meteohub,2013-10-03 11:57:00,
2013-10-03 07:02:00,63.9,63.0,29.83,North,0,2.0,4.0,97,0.00,,,0.00,meteohub,2013-10-03 12:02:00,
2013-10-03 07:07:00,63.7,62.8,29.83,NE,45,2.0,4.0,97,0.00,,,0.00,meteohub,2013-10-03 12:07:00,
2013-10-03 07:12:00,63.9,63.0,29.83,East,90,4.0,4.0,97,0.00,,,0.00,meteohub,2013-10-03 12:12:00,
2013-10-03 07:17:00,63.9,63.0,29.83,North,0,4.0,4.0,97,0.00,,,0.00,meteohub,2013-10-03 12:17:00,
2013-10-03 07:22:00,63.7,62.8,29.83,SSW,203,5.0,5.0,97,0.00,,,0.00,meteohub,2013-10-03 12:22:00,
2013-10-03 07:27:00,63.7,62.8,29.83,North,0,3.0,6.0,97,0.00,,,0.00,meteohub,2013-10-03 12:27:00,
2013-10-03 07:32:00,63.7,62.8,29.83,NE,45,5.0,6.0,97,0.00,,,0.00,meteohub,2013-10-03 12:32:00,
2013-10-03 07:37:00,63.7,62.8,29.83,East,90,4.0,6.0,97,0.00,,,0.00,meteohub,2013-10-03 12:37:00,
2013-10-03 07:42:00,63.7,62.8,29.83,East,90,4.0,6.0,97,0.00,,,0.00,meteohub,2013-10-03 12:42:00,
2013-10-03 07:47:00,63.7,62.8,29.83,NE,45,4.0,6.0,97,0.00,,,0.00,meteohub,2013-10-03 12:47:00,
2013-10-03 07:52:00,63.7,62.8,29.83,SE,135,4.0,5.0,97,0.00,,,0.00,meteohub,2013-10-03 12:52:00,
2013-10-03 07:57:00,63.7,62.8,29.83,East,90,4.0,5.0,97,0.00,,,0.00,meteohub,2013-10-03 12:57:00,
2013-10-03 08:02:00,63.7,62.8,29.83,East,90,3.0,6.0,97,0.00,,,0.00,meteohub,2013-10-03 13:02:00,
2013-10-03 08:07:00,63.7,62.8,29.83,East,90,4.0,6.0,97,0.00,,,0.00,meteohub,2013-10-03 13:07:00,
2013-10-03 08:12:00,63.5,62.6,29.82,East,90,4.0,6.0,97,0.00,,,0.00,meteohub,2013-10-03 13:12:00,
2013-10-03 08:17:00,63.3,62.4,29.82,East,90,4.0,7.0,97,0.00,,,0.00,meteohub,2013-10-03 13:17:00,
2013-10-03 08:22:00,63.1,62.2,29.81,East,90,4.0,9.0,97,0.00,,,0.00,meteohub,2013-10-03 13:22:00,
2013-10-03 08:27:00,63.0,62.1,29.81,NE,45,4.0,9.0,97,0.00,,,0.00,meteohub,2013-10-03 13:27:00,
2013-10-03 08:32:00,63.0,62.1,29.83,NE,45,4.0,8.0,97,0.00,,,0.00,meteohub,2013-10-03 13:32:00,
2013-10-03 08:37:00,62.8,61.9,29.82,SE,135,8.0,8.0,97,0.00,,,0.00,meteohub,2013-10-03 13:37:00,
2013-10-03 08:42:00,62.6,61.7,29.83,East,90,6.0,8.0,97,0.00,,,0.00,meteohub,2013-10-03 13:42:00,
2013-10-03 08:47:00,62.2,61.7,29.83,NE,45,7.0,9.0,98,0.00,,,0.00,meteohub,2013-10-03 13:47:00,
2013-10-03 08:52:00,62.1,61.5,29.83,East,90,4.0,9.0,98,0.00,,,0.00,meteohub,2013-10-03 13:52:00,
2013-10-03 08:57:00,62.1,61.5,29.83,East,90,7.0,8.0,98,0.00,,,0.00,meteohub,2013-10-03 13:57:00,
2013-10-03 09:02:00,62.1,61.5,29.83,East,90,5.0,8.0,98,0.00,,,0.00,meteohub,2013-10-03 14:02:00,
2013-10-03 09:07:00,62.1,61.5,29.84,NE,45,4.0,8.0,98,0.00,,,0.00,meteohub,2013-10-03 14:07:00,
2013-10-03 09:12:00,62.1,61.5,29.85,NE,45,2.0,8.0,98,0.00,,,0.00,meteohub,2013-10-03 14:12:00,
2013-10-03 09:17:00,62.1,61.5,29.85,North,0,4.0,5.0,98,0.02,,,0.02,meteohub,2013-10-03 14:17:00,
2013-10-03 09:22:00,62.1,61.5,29.85,NE,45,4.0,6.0,98,0.05,,,0.05,meteohub,2013-10-03 14:22:00,
2013-10-03 09:27:00,62.1,61.5,29.86,East,90,4.0,6.0,98,0.13,,,0.13,meteohub,2013-10-03 14:27:00,
2013-10-03 09:32:00,62.1,61.5,29.86,NW,315,5.0,5.0,98,0.18,,,0.18,meteohub,2013-10-03 14:32:00,
2013-10-03 09:37:00,62.1,61.5,29.85,East,90,4.0,5.0,98,0.18,,,0.18,meteohub,2013-10-03 14:37:00,
2013-10-03 09:42:00,62.2,61.7,29.85,SE,135,7.0,13.0,98,0.18,,,0.18,meteohub,2013-10-03 14:42:00,
2013-10-03 09:47:00,62.4,61.9,29.85,SE,135,4.0,13.0,98,0.18,,,0.18,meteohub,2013-10-03 14:47:00,
2013-10-03 09:52:00,62.6,61.7,29.84,East,90,5.0,13.0,97,0.18,,,0.18,meteohub,2013-10-03 14:52:00,
2013-10-03 09:57:00,63.0,62.1,29.84,East,90,7.0,11.0,97,0.18,,,0.18,meteohub,2013-10-03 14:57:00,
2013-10-03 10:02:00,63.1,62.2,29.83,SE,135,6.0,7.0,97,0.18,,,0.18,meteohub,2013-10-03 15:02:00,
2013-10-03 10:07:00,63.3,62.4,29.83,SE,135,7.0,8.0,97,0.18,,,0.18,meteohub,2013-10-03 15:07:00,
2013-10-03 10:12:00,63.3,62.4,29.84,SE,135,8.0,11.0,97,0.18,,,0.19,meteohub,2013-10-03 15:12:00,
2013-10-03 10:17:00,63.5,62.6,29.84,SE,135,7.0,11.0,97,0.15,,,0.19,meteohub,2013-10-03 15:17:00,
2013-10-03 10:22:00,63.5,62.6,29.84,East,90,7.0,11.0,97,0.12,,,0.19,meteohub,2013-10-03 15:22:00,
2013-10-03 10:27:00,63.5,62.6,29.84,SE,135,9.0,11.0,97,0.04,,,0.19,meteohub,2013-10-03 15:27:00,
2013-10-03 10:32:00,63.5,62.6,29.84,South,180,8.0,11.0,97,0.01,,,0.19,meteohub,2013-10-03 15:32:00,
2013-10-03 10:37:00,63.5,62.6,29.84,SE,135,7.0,9.0,97,0.01,,,0.19,meteohub,2013-10-03 15:37:00,
2013-10-03 10:42:00,63.7,62.8,29.83,SE,135,8.0,11.0,97,0.06,,,0.24,meteohub,2013-10-03 15:42:00,
2013-10-03 10:47:00,63.9,63.0,29.83,East,90,10.0,11.0,97,0.08,,,0.26,meteohub,2013-10-03 15:47:00,
2013-10-03 10:52:00,64.8,64.4,29.83,South,180,5.0,12.0,99,0.12,,,0.30,meteohub,2013-10-03 15:52:00,
2013-10-03 10:57:00,65.5,65.1,29.83,East,90,6.0,12.0,99,0.12,,,0.30,meteohub,2013-10-03 15:57:00,
2013-10-03 11:02:00,66.4,66.0,29.83,East,90,5.0,12.0,99,0.12,,,0.30,meteohub,2013-10-03 16:02:00,
2013-10-03 11:07:00,66.7,66.4,29.83,SE,135,7.0,10.0,99,0.12,,,0.30,meteohub,2013-10-03 16:07:00,
2013-10-03 11:12:00,66.6,66.2,29.83,SE,135,7.0,10.0,99,0.11,,,0.30,meteohub,2013-10-03 16:12:00,
2013-10-03 11:17:00,66.7,66.4,29.83,SE,135,8.0,8.0,99,0.11,,,0.30,meteohub,2013-10-03 16:17:00,
2013-10-03 11:22:00,66.6,66.2,29.83,SE,135,7.0,10.0,99,0.11,,,0.30,meteohub,2013-10-03 16:22:00,
2013-10-03 11:27:00,66.4,66.0,29.83,SE,135,5.0,10.0,99,0.11,,,0.30,meteohub,2013-10-03 16:27:00,
2013-10-03 11:32:00,66.4,66.0,29.82,East,90,5.0,10.0,99,0.18,,,0.37,meteohub,2013-10-03 16:32:00,
2013-10-03 11:37:00,67.1,66.7,29.82,SE,135,5.0,8.0,99,0.19,,,0.38,meteohub,2013-10-03 16:37:00,
2013-10-03 11:42:00,67.5,67.1,29.82,East,90,8.0,9.0,99,0.14,,,0.38,meteohub,2013-10-03 16:42:00,
2013-10-03 11:47:00,67.5,67.1,29.82,South,180,7.0,9.0,99,0.11,,,0.38,meteohub,2013-10-03 16:47:00,
2013-10-03 11:52:00,67.6,67.3,29.81,SE,135,6.0,9.0,99,0.08,,,0.38,meteohub,2013-10-03 16:52:00,
2013-10-03 11:57:00,68.2,15.4,29.81,SE,135,7.0,8.0,13,0.08,,,0.38,meteohub,2013-10-03 16:57:00,
2013-10-03 12:02:00,68.7,68.4,29.81,SE,135,5.0,8.0,99,0.08,,,0.38,meteohub,2013-10-03 17:02:00,
2013-10-03 12:07:00,68.7,68.4,29.81,SE,135,8.0,8.0,99,0.08,,,0.38,meteohub,2013-10-03 17:07:00,
2013-10-03 12:12:00,68.7,68.4,29.81,East,90,7.0,8.0,99,0.08,,,0.38,meteohub,2013-10-03 17:12:00,
2013-10-03 12:17:00,68.7,68.4,29.81,SE,135,6.0,8.0,99,0.08,,,0.38,meteohub,2013-10-03 17:17:00,
2013-10-03 12:22:00,68.9,68.5,29.81,South,180,8.0,8.0,99,0.08,,,0.38,meteohub,2013-10-03 17:22:00,
2013-10-03 12:27:00,68.7,68.4,29.81,SE,135,8.0,8.0,99,0.06,,,0.38,meteohub,2013-10-03 17:27:00,
2013-10-03 12:32:00,68.7,68.4,29.80,SE,135,7.0,8.0,99,0.00,,,0.38,meteohub,2013-10-03 17:32:00,
2013-10-03 12:37:00,68.7,68.4,29.79,SE,135,6.0,8.0,99,0.00,,,0.38,meteohub,2013-10-03 17:37:00,
2013-10-03 12:42:00,68.9,68.5,29.79,SE,135,5.0,8.0,99,0.00,,,0.38,meteohub,2013-10-03 17:42:00,
2013-10-03 12:47:00,68.9,68.5,29.79,SE,135,8.0,9.0,99,0.00,,,0.38,meteohub,2013-10-03 17:47:00,
2013-10-03 12:52:00,68.9,68.5,29.79,SE,135,8.0,9.0,99,0.00,,,0.38,meteohub,2013-10-03 17:52:00,
2013-10-03 12:57:00,68.7,68.4,29.78,East,90,12.0,12.0,99,0.00,,,0.38,meteohub,2013-10-03 17:57:00,
2013-10-03 13:02:00,68.7,68.4,29.78,ESE,113,11.0,13.0,99,0.00,,,0.38,meteohub,2013-10-03 18:02:00,
2013-10-03 13:07:00,68.5,68.2,29.79,SE,135,5.0,13.0,99,0.00,,,0.38,meteohub,2013-10-03 18:07:00,
2013-10-03 13:12:00,68.5,68.2,29.79,SE,135,7.0,13.0,99,0.00,,,0.38,meteohub,2013-10-03 18:12:00,
2013-10-03 13:17:00,68.5,68.2,29.79,SE,135,4.0,17.0,99,0.00,,,0.38,meteohub,2013-10-03 18:17:00,
2013-10-03 13:22:00,68.5,68.2,29.79,SE,135,6.0,17.0,99,0.00,,,0.38,meteohub,2013-10-03 18:22:00,
2013-10-03 13:27:00,68.5,68.2,29.80,East,90,8.0,17.0,99,0.00,,,0.38,meteohub,2013-10-03 18:27:00,
2013-10-03 13:32:00,68.5,68.2,29.79,South,180,7.0,9.0,99,0.00,,,0.38,meteohub,2013-10-03 18:32:00,
2013-10-03 13:37:00,68.7,68.4,29.79,SE,135,9.0,9.0,99,0.00,,,0.38,meteohub,2013-10-03 18:37:00,
2013-10-03 13:42:00,68.9,68.5,29.78,SE,135,8.0,12.0,99,0.00,,,0.38,meteohub,2013-10-03 18:42:00,
2013-10-03 13:47:00,69.1,68.7,29.78,SE,135,9.0,12.0,99,0.00,,,0.38,meteohub,2013-10-03 18:47:00,
2013-10-03 13:52:00,69.1,68.7,29.78,SE,135,8.0,12.0,99,0.00,,,0.38,meteohub,2013-10-03 18:52:00,
2013-10-03 13:57:00,69.3,68.9,29.77,SE,135,9.0,12.0,99,0.00,,,0.38,meteohub,2013-10-03 18:57:00,
2013-10-03 14:02:00,69.3,68.9,29.77,SE,135,6.0,15.0,99,0.00,,,0.38,meteohub,2013-10-03 19:02:00,
2013-10-03 14:07:00,69.3,68.9,29.77,SE,135,10.0,15.0,99,0.00,,,0.38,meteohub,2013-10-03 19:07:00,
2013-10-03 14:12:00,69.3,68.9,29.76,SE,135,6.0,11.0,99,0.00,,,0.38,meteohub,2013-10-03 19:12:00,
2013-10-03 14:17:00,69.4,69.1,29.76,SE,135,8.0,11.0,99,0.00,,,0.38,meteohub,2013-10-03 19:17:00,
2013-10-03 14:22:00,69.8,69.3,29.76,SE,135,8.0,11.0,98,0.00,,,0.38,meteohub,2013-10-03 19:22:00,
2013-10-03 14:27:00,70.0,69.4,29.76,SE,135,9.0,11.0,98,0.00,,,0.38,meteohub,2013-10-03 19:27:00,
2013-10-03 14:32:00,70.2,69.6,29.75,SE,135,8.0,11.0,98,0.00,,,0.38,meteohub,2013-10-03 19:32:00,
2013-10-03 14:37:00,70.3,69.8,29.75,South,180,8.0,11.0,98,0.00,,,0.38,meteohub,2013-10-03 19:37:00,
2013-10-03 14:42:00,70.9,70.3,29.75,East,90,9.0,12.0,98,0.00,,,0.38,meteohub,2013-10-03 19:42:00,
2013-10-03 14:47:00,71.2,70.7,29.75,SE,135,11.0,12.0,98,0.00,,,0.38,meteohub,2013-10-03 19:47:00,
2013-10-03 14:52:00,72.0,71.1,29.76,East,90,8.0,12.0,97,0.00,,,0.38,meteohub,2013-10-03 19:52:00,
2013-10-03 14:57:00,72.1,71.2,29.76,East,90,10.0,12.0,97,0.00,,,0.38,meteohub,2013-10-03 19:57:00,
2013-10-03 15:02:00,72.1,71.2,29.75,SE,135,10.0,12.0,97,0.00,,,0.38,meteohub,2013-10-03 20:02:00,
2013-10-03 15:07:00,72.3,71.4,29.75,SE,135,7.0,11.0,97,0.00,,,0.38,meteohub,2013-10-03 20:07:00,
2013-10-03 15:12:00,72.7,71.4,29.75,SE,135,9.0,10.0,96,0.00,,,0.38,meteohub,2013-10-03 20:12:00,
2013-10-03 15:17:00,72.9,71.6,29.74,East,90,11.0,11.0,96,0.00,,,0.38,meteohub,2013-10-03 20:17:00,
2013-10-03 15:22:00,72.9,71.4,29.75,SE,135,8.0,11.0,95,0.00,,,0.38,meteohub,2013-10-03 20:22:00,
2013-10-03 15:27:00,72.9,71.4,29.75,SE,135,9.0,12.0,95,0.00,,,0.38,meteohub,2013-10-03 20:27:00,
2013-10-03 15:32:00,72.9,71.4,29.75,SE,135,7.0,12.0,95,0.00,,,0.38,meteohub,2013-10-03 20:32:00,
2013-10-03 15:37:00,72.7,71.2,29.75,South,180,9.0,10.0,95,0.01,,,0.39,meteohub,2013-10-03 20:37:00,
2013-10-03 15:42:00,72.9,71.4,29.75,East,90,8.0,11.0,95,0.01,,,0.39,meteohub,2013-10-03 20:42:00,
2013-10-03 15:47:00,72.9,71.4,29.75,SE,135,6.0,12.0,95,0.01,,,0.39,meteohub,2013-10-03 20:47:00,
2013-10-03 15:52:00,72.9,71.4,29.75,SE,135,10.0,12.0,95,0.01,,,0.39,meteohub,2013-10-03 20:52:00,
2013-10-03 15:57:00,72.9,71.4,29.74,SE,135,12.0,13.0,95,0.01,,,0.39,meteohub,2013-10-03 20:57:00,
2013-10-03 16:02:00,72.9,71.1,29.75,South,180,6.0,13.0,94,0.01,,,0.39,meteohub,2013-10-03 21:02:00,
2013-10-03 16:07:00,72.9,71.1,29.74,South,180,8.0,13.0,94,0.01,,,0.39,meteohub,2013-10-03 21:07:00,
2013-10-03 16:12:00,73.0,70.9,29.74,SE,135,6.0,12.0,93,0.01,,,0.39,meteohub,2013-10-03 21:12:00,
2013-10-03 16:17:00,73.0,70.5,29.74,East,90,11.0,11.0,92,0.01,,,0.39,meteohub,2013-10-03 21:17:00,
2013-10-03 16:22:00,73.0,70.5,29.74,SE,135,9.0,11.0,92,0.01,,,0.39,meteohub,2013-10-03 21:22:00,
2013-10-03 16:27:00,73.2,70.5,29.74,SE,135,9.0,12.0,91,0.01,,,0.39,meteohub,2013-10-03 21:27:00,
2013-10-03 16:32:00,73.2,70.5,29.74,SE,135,8.0,12.0,91,0.01,,,0.39,meteohub,2013-10-03 21:32:00,
2013-10-03 16:37:00,73.6,71.1,29.73,East,90,11.0,12.0,92,0.00,,,0.39,meteohub,2013-10-03 21:37:00,
2013-10-03 16:42:00,73.8,70.9,29.73,South,180,14.0,14.0,91,0.00,,,0.39,meteohub,2013-10-03 21:42:00,
2013-10-03 16:47:00,74.1,70.7,29.73,South,180,8.0,14.0,89,0.00,,,0.39,meteohub,2013-10-03 21:47:00,
2013-10-03 16:52:00,74.3,70.5,29.73,SE,135,7.0,14.0,88,0.00,,,0.39,meteohub,2013-10-03 21:52:00,
2013-10-03 16:57:00,74.3,70.5,29.73,SE,135,8.0,14.0,88,0.00,,,0.39,meteohub,2013-10-03 21:57:00,
2013-10-03 17:02:00,74.1,70.0,29.73,East,90,6.0,11.0,87,0.00,,,0.39,meteohub,2013-10-03 22:02:00,
2013-10-03 17:07:00,74.1,70.0,29.73,SE,135,7.0,11.0,87,0.00,,,0.39,meteohub,2013-10-03 22:07:00,
2013-10-03 17:12:00,73.9,70.2,29.74,SE,135,10.0,11.0,88,0.00,,,0.39,meteohub,2013-10-03 22:12:00,
2013-10-03 17:17:00,73.9,70.2,29.74,South,180,7.0,10.0,88,0.00,,,0.39,meteohub,2013-10-03 22:17:00,
2013-10-03 17:22:00,73.8,70.0,29.74,South,180,7.0,10.0,88,0.00,,,0.39,meteohub,2013-10-03 22:22:00,
2013-10-03 17:27:00,73.8,70.0,29.74,South,180,5.0,10.0,88,0.00,,,0.39,meteohub,2013-10-03 22:27:00,
2013-10-03 17:32:00,73.6,70.2,29.74,South,180,5.0,9.0,89,0.00,,,0.39,meteohub,2013-10-03 22:32:00,
2013-10-03 17:37:00,73.4,70.0,29.75,East,90,6.0,10.0,89,0.00,,,0.39,meteohub,2013-10-03 22:37:00,
2013-10-03 17:42:00,73.2,69.8,29.75,South,180,6.0,10.0,89,0.00,,,0.39,meteohub,2013-10-03 22:42:00,
2013-10-03 17:47:00,73.2,70.2,29.75,South,180,7.0,10.0,90,0.00,,,0.39,meteohub,2013-10-03 22:47:00,
2013-10-03 17:52:00,73.2,70.2,29.75,SE,135,6.0,11.0,90,0.00,,,0.39,meteohub,2013-10-03 22:52:00,
2013-10-03 17:57:00,73.2,70.5,29.75,SE,135,11.0,11.0,91,0.00,,,0.39,meteohub,2013-10-03 22:57:00,
2013-10-03 18:02:00,73.6,70.7,29.75,South,180,5.0,11.0,91,0.00,,,0.39,meteohub,2013-10-03 23:02:00,
2013-10-03 18:07:00,73.8,70.7,29.74,South,180,6.0,11.0,90,0.00,,,0.39,meteohub,2013-10-03 23:07:00,
2013-10-03 18:12:00,73.8,70.7,29.74,SE,135,8.0,11.0,90,0.00,,,0.39,meteohub,2013-10-03 23:12:00,
2013-10-03 18:17:00,73.8,70.3,29.75,SE,135,4.0,9.0,89,0.00,,,0.39,meteohub,2013-10-03 23:17:00,
2013-10-03 18:22:00,73.6,70.2,29.75,SE,135,2.0,9.0,89,0.00,,,0.39,meteohub,2013-10-03 23:22:00,
2013-10-03 18:27:00,73.2,69.8,29.74,East,90,2.0,9.0,89,0.00,,,0.39,meteohub,2013-10-03 23:27:00,
2013-10-03 18:32:00,73.0,70.0,29.74,SE,135,2.0,6.0,90,0.00,,,0.39,meteohub,2013-10-03 23:32:00,
2013-10-03 18:37:00,72.7,69.6,29.75,SE,135,3.0,5.0,90,0.00,,,0.39,meteohub,2013-10-03 23:37:00,
2013-10-03 18:42:00,72.3,69.6,29.75,NW,315,7.0,7.0,91,0.00,,,0.39,meteohub,2013-10-03 23:42:00,
2013-10-03 18:47:00,72.1,69.4,29.75,SW,225,14.0,14.0,91,0.00,,,0.39,meteohub,2013-10-03 23:47:00,
2013-10-03 18:52:00,72.0,69.3,29.75,South,180,10.0,14.0,91,0.00,,,0.39,meteohub,2013-10-03 23:52:00,
2013-10-03 18:57:00,71.4,68.9,29.76,South,180,11.0,14.0,92,0.00,,,0.39,meteohub,2013-10-03 23:57:00,
2013-10-03 19:02:00,70.9,68.4,29.76,South,180,4.0,14.0,92,0.00,,,0.39,meteohub,2013-10-04 00:02:00,
2013-10-03 19:07:00,70.5,68.4,29.76,SE,135,5.0,11.0,93,0.00,,,0.00,meteohub,2013-10-04 00:07:00,
2013-10-03 19:12:00,70.2,68.0,29.76,SE,135,8.0,11.0,93,0.00,,,0.00,meteohub,2013-10-04 00:12:00,
2013-10-03 19:17:00,70.0,68.2,29.76,SE,135,4.0,9.0,94,0.00,,,0.00,meteohub,2013-10-04 00:17:00,
2013-10-03 19:22:00,70.0,68.5,29.76,South,180,6.0,9.0,95,0.00,,,0.00,meteohub,2013-10-04 00:22:00,
2013-10-03 19:27:00,69.8,68.4,29.76,SE,135,5.0,9.0,95,0.00,,,0.00,meteohub,2013-10-04 00:27:00,
2013-10-03 19:32:00,69.6,68.4,29.76,SE,135,4.0,8.0,96,0.00,,,0.00,meteohub,2013-10-04 00:32:00,
2013-10-03 19:37:00,69.6,68.4,29.76,SE,135,3.0,8.0,96,0.00,,,0.00,meteohub,2013-10-04 00:37:00,
2013-10-03 19:42:00,69.4,68.2,29.76,SE,135,4.0,5.0,96,0.00,,,0.00,meteohub,2013-10-04 00:42:00,
2013-10-03 19:47:00,69.4,68.2,29.77,SE,135,4.0,5.0,96,0.00,,,0.00,meteohub,2013-10-04 00:47:00,
2013-10-03 19:52:00,69.1,67.8,29.77,SE,135,4.0,5.0,96,0.00,,,0.00,meteohub,2013-10-04 00:52:00,
2013-10-03 19:57:00,68.7,67.5,29.78,South,180,2.0,5.0,96,0.00,,,0.00,meteohub,2013-10-04 00:57:00,
2013-10-03 20:02:00,68.5,67.6,29.78,South,180,2.0,4.0,97,0.00,,,0.00,meteohub,2013-10-04 01:02:00,
2013-10-03 20:07:00,68.5,67.6,29.77,East,90,3.0,4.0,97,0.00,,,0.00,meteohub,2013-10-04 01:07:00,
2013-10-03 20:12:00,68.5,67.6,29.77,West,270,2.0,4.0,97,0.00,,,0.00,meteohub,2013-10-04 01:12:00,
2013-10-03 20:17:00,68.7,67.8,29.78,SW,225,3.0,4.0,97,0.00,,,0.00,meteohub,2013-10-04 01:17:00,
2013-10-03 20:22:00,68.7,68.2,29.77,ESE,113,2.0,4.0,98,0.00,,,0.00,meteohub,2013-10-04 01:22:00,
2013-10-03 20:27:00,68.9,68.4,29.77,SE,135,4.0,4.0,98,0.00,,,0.00,meteohub,2013-10-04 01:27:00,
2013-10-03 20:32:00,69.1,68.5,29.77,South,180,4.0,5.0,98,0.00,,,0.00,meteohub,2013-10-04 01:32:00,
2013-10-03 20:37:00,69.3,68.7,29.78,SW,225,4.0,5.0,98,0.00,,,0.00,meteohub,2013-10-04 01:37:00,
2013-10-03 20:42:00,69.1,68.5,29.79,SW,225,7.0,7.0,98,0.00,,,0.00,meteohub,2013-10-04 01:42:00,
2013-10-03 20:47:00,69.3,68.7,29.78,SW,225,5.0,8.0,98,0.00,,,0.00,meteohub,2013-10-04 01:47:00,
2013-10-03 20:52:00,69.3,68.7,29.78,SW,225,5.0,8.0,98,0.00,,,0.00,meteohub,2013-10-04 01:52:00,
2013-10-03 20:57:00,69.8,68.9,29.78,South,180,5.0,8.0,97,0.00,,,0.00,meteohub,2013-10-04 01:57:00,
2013-10-03 21:02:00,69.8,68.9,29.78,SW,225,4.0,8.0,97,0.01,,,0.01,meteohub,2013-10-04 02:02:00,
2013-10-03 21:07:00,69.8,68.9,29.78,SW,225,4.0,5.0,97,0.01,,,0.01,meteohub,2013-10-04 02:07:00,
2013-10-03 21:12:00,69.6,69.1,29.78,SW,225,7.0,7.0,98,0.01,,,0.01,meteohub,2013-10-04 02:12:00,
2013-10-03 21:17:00,69.8,69.3,29.78,South,180,9.0,9.0,98,0.01,,,0.01,meteohub,2013-10-04 02:17:00,
2013-10-03 21:22:00,70.2,69.3,29.78,SW,225,6.0,9.0,97,0.01,,,0.01,meteohub,2013-10-04 02:22:00,
2013-10-03 21:27:00,70.2,69.3,29.76,South,180,6.0,11.0,97,0.01,,,0.01,meteohub,2013-10-04 02:27:00,
2013-10-03 21:32:00,70.2,68.9,29.74,South,180,15.0,15.0,96,0.01,,,0.01,meteohub,2013-10-04 02:32:00,
2013-10-03 21:37:00,70.0,69.1,29.75,South,180,8.0,15.0,97,0.02,,,0.02,meteohub,2013-10-04 02:37:00,
2013-10-03 21:42:00,69.6,69.1,29.76,South,180,9.0,15.0,98,0.02,,,0.02,meteohub,2013-10-04 02:42:00,
2013-10-03 21:47:00,69.6,69.1,29.77,SW,225,9.0,15.0,98,0.02,,,0.02,meteohub,2013-10-04 02:47:00,
2013-10-03 21:52:00,69.6,69.1,29.78,South,180,8.0,14.0,98,0.02,,,0.02,meteohub,2013-10-04 02:52:00,
2013-10-03 21:57:00,69.8,68.9,29.78,South,180,4.0,11.0,97,0.02,,,0.02,meteohub,2013-10-04 02:57:00,
2013-10-03 22:02:00,69.6,69.1,29.78,South,180,6.0,9.0,98,0.01,,,0.02,meteohub,2013-10-04 03:02:00,
2013-10-03 22:07:00,69.6,69.1,29.78,WNW,293,5.0,9.0,98,0.01,,,0.02,meteohub,2013-10-04 03:07:00,
2013-10-03 22:13:00,69.6,69.1,29.79,SW,225,4.0,8.0,98,0.01,,,0.02,meteohub,2013-10-04 03:13:00,
2013-10-03 22:18:00,69.4,68.9,29.79,South,180,9.0,9.0,98,0.01,,,0.02,meteohub,2013-10-04 03:18:00,
2013-10-03 22:23:00,69.4,69.1,29.79,South,180,6.0,9.0,99,0.01,,,0.02,meteohub,2013-10-04 03:23:00,
2013-10-03 22:28:00,69.3,68.9,29.80,SW,225,4.0,9.0,99,0.01,,,0.02,meteohub,2013-10-04 03:28:00,
2013-10-03 22:33:00,69.3,68.9,29.81,SE,135,4.0,9.0,99,0.01,,,0.02,meteohub,2013-10-04 03:33:00,
2013-10-03 22:38:00,69.1,68.7,29.81,SE,135,6.0,8.0,99,0.00,,,0.02,meteohub,2013-10-04 03:38:00,
2013-10-03 22:43:00,69.1,68.7,29.81,SW,225,4.0,8.0,99,0.00,,,0.02,meteohub,2013-10-04 03:43:00,
2013-10-03 22:48:00,68.7,68.4,29.81,SE,135,4.0,8.0,99,0.00,,,0.02,meteohub,2013-10-04 03:48:00,
2013-10-03 22:53:00,68.5,68.0,29.81,North,0,1.0,8.0,98,0.00,,,0.02,meteohub,2013-10-04 03:53:00,
2013-10-03 22:59:00,68.0,67.5,29.81,SE,135,5.0,8.0,98,0.00,,,0.02,meteohub,2013-10-04 03:59:00,
2013-10-03 23:35:00,66.6,66.0,29.80,SW,225,7.0,9.0,98,0.00,,,0.02,meteohub,2013-10-04 04:35:00,
2013-10-03 23:36:00,66.6,66.0,29.80,SW,225,7.0,9.0,98,0.00,,,0.02,meteohub,2013-10-04 04:36:00,
2013-10-03 23:38:00,66.6,66.0,29.81,South,180,5.0,9.0,98,0.00,,,0.02,meteohub,2013-10-04 04:38:00,
2013-10-03 23:43:00,66.4,65.8,29.81,SW,225,7.0,8.0,98,0.00,,,0.02,meteohub,2013-10-04 04:43:00,
2013-10-03 23:46:00,66.4,65.8,29.80,SW,225,5.0,8.0,98,0.00,,,0.02,meteohub,2013-10-04 04:46:00,
2013-10-03 23:47:00,66.4,65.8,29.81,SW,225,4.0,8.0,98,0.00,,,0.02,meteohub,2013-10-04 04:47:00,
2013-10-03 23:48:00,66.4,65.8,29.80,West,270,5.0,8.0,98,0.00,,,0.02,meteohub,2013-10-04 04:48:00,
2013-10-03 23:57:00,66.4,65.8,29.80,South,180,6.0,8.0,98,0.00,,,0.02,meteohub,2013-10-04 04:57:00,